Regional Weather Roundup
Issued by NWS

Home | Current Version | Previous Version | Text Only | Print | Product List | Glossary On
Versions: 1 2 3 4 5 6 7 8 9 10 11 12 13 14 15 16 17 18 19 20 21 22 23 24 25 26 27 28 29 30 31 32 33 34 35 36 37 38 39 40 41 42 43 44 45 46 47 48 49 50
144
ASUS43 KOAX 190710
RWRNE

WEATHER ROUNDUP FOR NEBRASKA
NATIONAL WEATHER SERVICE OMAHA NE
100 AM CST SUN NOV 19 2017

NOTES: SATELLITE DATA IS BEING USED TO AUGMENT CLOUD COVER ABOVE
       12000 FEET.
       "FAIR" INDICATES FEW OR NO CLOUDS BELOW 12,000 FEET WITH NO
       SIGNIFICANT WEATHER AND/OR OBSTRUCTIONS TO VISIBILITY.


NEZ001>004-019>022-054>056-190800-
NEBRASKA PANHANDLE

CITY           SKY/WX    TMP DP  RH WIND       PRES   REMARKS
SCOTTSBLUFF    CLOUDY    19  13  77 N5        30.20F WCI  12
ALLIANCE       CLOUDY    14  12  92 W8        30.18F WCI   3
CHADRON        PTCLDY    26  20  77 SW10      30.18F WCI  16
GORDON         FAIR      24  17  75 CALM      30.15F
KIMBALL        CLOUDY    21  15  77 W5        30.22S WCI  14
SIDNEY         CLEAR     19  12  74 W9        30.22F WCI   8
$$

NEZ057>060-069>072-079>082-190800-
SOUTHWEST NEBRASKA

CITY           SKY/WX    TMP DP  RH WIND       PRES   REMARKS
NORTH PLATTE   CLEAR     21  17  84 NW6       30.23S WCI  13
IMPERIAL       CLEAR     27  17  66 W6        30.25F WCI  20
LEXINGTON      CLEAR     24  19  83 NW5       30.22F WCI  18
MCCOOK         CLEAR     27  21  78 W10       30.25F WCI  17
OGALLALA       CLEAR     24  19  79 W7        30.23S WCI  16
$$

NEZ005>010-023>029-035>040-094-190800-
NORTH CENTRAL NEBRASKA

CITY           SKY/WX    TMP DP  RH WIND       PRES   REMARKS
VALENTINE      CLEAR     27  20  75 W7        30.17S WCI  19
AINSWORTH      CLEAR     27  22  81 W3        30.17S
BROKEN BOW     CLEAR     27  20  75 CALM      30.20S
O`NEILL        CLEAR     24  23  93 CALM      30.17F
ORD            CLEAR     23  19  85 SW3       30.18F
THEDFORD       CLEAR     24  20  85 CALM      30.20S
$$

NEZ041-046>049-061>064-073>077-083>087-190800-
SOUTH CENTRAL NEBRASKA

CITY           SKY/WX    TMP DP  RH WIND       PRES   REMARKS
GRAND ISLAND   CLEAR     28  24  85 W8        30.21F WCI  20
AURORA         CLEAR     26  22  87 W5        30.21S WCI  20
HASTINGS       CLEAR     30  21  69 W6        30.22F WCI  24
HEBRON         CLEAR     28  24  82 W3        30.24S
HOLDREGE       CLEAR     31  22  70 W9        30.22F WCI  23
KEARNEY        CLEAR     31  22  69 W6        30.23S WCI  25
YORK           PTCLDY    27  25  93 CALM      30.21F
$$

NEZ011>018-030>034-042>045-190800-
NORTHEAST NEBRASKA

CITY           SKY/WX    TMP DP  RH WIND       PRES   REMARKS
NORFOLK        CLOUDY    23  20  88 CALM      30.20S
ALBION         PTCLDY    22  19  87 CALM      30.20S
BLAIR          CLEAR     28  22  78 NW7       30.20R WCI  21
COLUMBUS       CLEAR     23  19  85 CALM      30.22F
FREMONT        CLEAR     24  20  86 W3        30.22S
TEKAMAH        CLEAR     27  20  75 NW7       30.21S WCI  19
WAYNE          CLEAR     21  18  88 SW5       30.20S WCI  15
$$

NEZ050>053-065>068-078-088>093-190800-
SOUTHEAST NEBRASKA

CITY           SKY/WX    TMP DP  RH WIND       PRES   REMARKS
LINCOLN        CLEAR     23  19  85 N7        30.24S WCI  15
OMAHA EPPLEY   CLEAR     28  19  69 NW7       30.22R WCI  21
BEATRICE       CLEAR     25  22  89 W5        30.23S WCI  19
FALLS CITY     CLEAR     29  24  82 W9        30.22S WCI  20
NEBRASKA CITY  CLEAR     29  25  82 NW10      30.22R WCI  20
PLATTSMOUTH    CLEAR     28  23  81 W8        30.22R WCI  20
$$

NEZ044-045-051>053-067-190800-
OMAHA AREA

CITY           SKY/WX    TMP DP  RH WIND       PRES   REMARKS
OMAHA EPPLEY   CLEAR     28  19  69 NW7       30.22R WCI  21
BLAIR          CLEAR     28  22  78 NW7       30.20R WCI  21
FREMONT        CLEAR     24  20  86 W3        30.22S
MILLARD        CLEAR     31  23  73 NW6       30.23R WCI  25
OFFUTT AFB     CLEAR     28  21  74 NW9       30.21R WCI  19
PLATTSMOUTH    CLEAR     28  23  81 W8        30.22R WCI  20
WAHOO          FAIR      30  24  78 NW7       30.23R WCI  23
$$




USA.gov is the U.S. government's official web portal to all federal, state and local government web resources and services.